Location: Hawaiian Village Mobile Home Park
(32.8359°N, 116.9792°W)
Time: 18:57:56
(UTC+00:00)

Meteor 1-21 Rocket - Pass Details

Date: 01 August 2021
Orbit: 832 x 908 km, 81.2° (Epoch: 23 September)

Event Time Altitude Azimuth Distance (km) Brightness Sun altitude
Rises 12:29:17 0° 351° (N) 3,472 7.6 -7.1°
Reaches altitude 10° 12:31:45 10° 352° (N) 2,519 6.9 -6.6°
Maximum altitude 12:37:28 88° 264° (W) 861 4.3 -5.5°
Drops below altitude 10° 12:43:03 10° 174° (S) 2,456 6.4 -4.5°
Sets 12:45:26 0° 174° (S) 3,379 7.1 -4.0°
